Hourly Weather Lubin

Today, 5 July, Sunday

Time Temperature Precipitation Wind Pressure Humidity
00:00 +20°C° 0 mm 3 mps 749 mmHg 72%
01:00 +20°C° 0 mm 3 mps 749 mmHg 71%
02:00 +20°C° 0 mm 3 mps 749 mmHg 73%
03:00 +19°C° 0 mm 3 mps 749 mmHg 75%
04:00 +19°C° 0 mm 3 mps 749 mmHg 77%
05:00 +20°C° 0 mm 3 mps 749 mmHg 74%
06:00 +21°C° 0 mm 4 mps 749 mmHg 71%
07:00 +22°C° 0 mm 4 mps 748 mmHg 68%
08:00 +23°C° 0 mm 5 mps 749 mmHg 67%
09:00 +25°C° 0 mm 5 mps 749 mmHg 65%
10:00 +26°C° 0 mm 5 mps 749 mmHg 64%
11:00 +25°C° 0.1 mm 5 mps 748 mmHg 66%
12:00 +25°C° 0.1 mm 5 mps 748 mmHg 67%
13:00 +25°C° 0.1 mm 5 mps 748 mmHg 69%
14:00 +26°C° 0.1 mm 5 mps 748 mmHg 67%
15:00 +27°C° 0.1 mm 6 mps 748 mmHg 64%
16:00 +27°C° 0.1 mm 6 mps 747 mmHg 62%
17:00 +26°C° 0 mm 5 mps 747 mmHg 66%
18:00 +26°C° 0 mm 4 mps 747 mmHg 69%
19:00 +25°C° 0 mm 4 mps 747 mmHg 72%
20:00 +24°C° 0 mm 3 mps 747 mmHg 75%
21:00 +22°C° 0 mm 3 mps 747 mmHg 78%
22:00 +21°C° 0 mm 3 mps 747 mmHg 81%
23:00 +21°C° 0 mm 3 mps 747 mmHg 82%

Tomorrow, 6 July, Monday

Time Temperature Precipitation Wind Pressure Humidity
00:00 +20°C° 0 mm 3 mps 747 mmHg 82%
01:00 +20°C° 0 mm 3 mps 747 mmHg 83%
02:00 +20°C° 0 mm 3 mps 746 mmHg 84%
03:00 +19°C° 0 mm 3 mps 746 mmHg 84%
04:00 +19°C° 0 mm 3 mps 746 mmHg 85%
05:00 +19°C° 0 mm 4 mps 746 mmHg 83%
06:00 +20°C° 0 mm 4 mps 746 mmHg 82%
07:00 +20°C° 0 mm 4 mps 746 mmHg 81%
08:00 +20°C° 0 mm 4 mps 746 mmHg 77%
09:00 +20°C° 0 mm 4 mps 746 mmHg 73%
10:00 +20°C° 0 mm 4 mps 746 mmHg 69%
11:00 +21°C° 0 mm 5 mps 746 mmHg 62%
12:00 +22°C° 0 mm 5 mps 746 mmHg 56%
13:00 +22°C° 0 mm 6 mps 746 mmHg 49%
14:00 +23°C° 0 mm 6 mps 746 mmHg 49%
15:00 +23°C° 0 mm 6 mps 746 mmHg 48%
16:00 +23°C° 0 mm 7 mps 746 mmHg 47%
17:00 +21°C° 0 mm 6 mps 747 mmHg 51%
18:00 +20°C° 0 mm 5 mps 747 mmHg 55%
19:00 +19°C° 0 mm 4 mps 747 mmHg 60%
20:00 +18°C° 0 mm 4 mps 747 mmHg 62%
21:00 +15°C° 0 mm 4 mps 748 mmHg 65%
22:00 +14°C° 0 mm 3 mps 748 mmHg 67%
23:00 +14°C° 0 mm 4 mps 749 mmHg 68%

Day after tomorrow, 7 July, Tuesday

Time Temperature Precipitation Wind Pressure Humidity
00:00 +14°C° 0 mm 4 mps 749 mmHg 69%
01:00 +14°C° 0 mm 5 mps 750 mmHg 70%
02:00 +13°C° 0 mm 5 mps 750 mmHg 73%
03:00 +13°C° 0 mm 5 mps 750 mmHg 77%
04:00 +12°C° 0 mm 5 mps 750 mmHg 80%
05:00 +12°C° 0 mm 5 mps 751 mmHg 78%
06:00 +13°C° 0 mm 6 mps 751 mmHg 76%
07:00 +14°C° 0 mm 6 mps 751 mmHg 75%
08:00 +14°C° 0.1 mm 5 mps 751 mmHg 71%
09:00 +15°C° 0.1 mm 5 mps 751 mmHg 67%
10:00 +15°C° 0.1 mm 4 mps 752 mmHg 62%
11:00 +17°C° 0.1 mm 4 mps 752 mmHg 60%
12:00 +17°C° 0.1 mm 4 mps 752 mmHg 57%
13:00 +18°C° 0.1 mm 4 mps 752 mmHg 55%
14:00 +18°C° 0 mm 4 mps 752 mmHg 53%
15:00 +19°C° 0 mm 4 mps 752 mmHg 51%
16:00 +19°C° 0 mm 4 mps 752 mmHg 50%
17:00 +18°C° 0 mm 3 mps 752 mmHg 54%
18:00 +18°C° 0 mm 3 mps 752 mmHg 58%
19:00 +17°C° 0 mm 2 mps 752 mmHg 61%
20:00 +15°C° 0 mm 2 mps 752 mmHg 64%
21:00 +14°C° 0 mm 2 mps 752 mmHg 67%
22:00 +12°C° 0 mm 2 mps 752 mmHg 70%
23:00 +12°C° 0 mm 2 mps 752 mmHg 73%

8 July, Wednesday

Time Temperature Precipitation Wind Pressure Humidity
00:00 +10°C° 0 mm 2 mps 752 mmHg 75%
01:00 +10°C° 0 mm 2 mps 752 mmHg 78%
02:00 +10°C° 0 mm 2 mps 751 mmHg 79%
03:00 +9°C° 0 mm 2 mps 751 mmHg 80%
04:00 +9°C° 0 mm 2 mps 751 mmHg 81%
05:00 +12°C° 0 mm 2 mps 751 mmHg 75%
06:00 +14°C° 0 mm 2 mps 750 mmHg 70%
07:00 +16°C° 0 mm 3 mps 750 mmHg 65%
08:00 +18°C° 0 mm 3 mps 750 mmHg 59%
09:00 +20°C° 0 mm 3 mps 750 mmHg 54%
10:00 +22°C° 0 mm 4 mps 750 mmHg 48%
11:00 +22°C° 0 mm 4 mps 749 mmHg 47%
12:00 +23°C° 0 mm 5 mps 749 mmHg 46%
13:00 +25°C° 0 mm 5 mps 748 mmHg 44%
14:00 +22°C° 0 mm 5 mps 748 mmHg 50%
15:00 +21°C° 0 mm 4 mps 748 mmHg 56%
16:00 +20°C° 0 mm 3 mps 748 mmHg 62%
17:00 +20°C° 0.1 mm 3 mps 748 mmHg 64%
18:00 +20°C° 0.1 mm 3 mps 748 mmHg 66%
19:00 +19°C° 0.1 mm 3 mps 749 mmHg 67%
20:00 +18°C° 0 mm 3 mps 749 mmHg 70%
21:00 +17°C° 0 mm 4 mps 750 mmHg 73%
22:00 +14°C° 0 mm 4 mps 750 mmHg 76%
23:00 +14°C° 0 mm 4 mps 751 mmHg 82%

9 July, Thursday

Time Temperature Precipitation Wind Pressure Humidity
00:00 +13°C° 0 mm 3 mps 751 mmHg 88%
01:00 +12°C° 0 mm 3 mps 752 mmHg 94%
02:00 +12°C° 0 mm 3 mps 752 mmHg 95%
03:00 +11°C° 0 mm 3 mps 752 mmHg 95%
04:00 +10°C° 0 mm 3 mps 752 mmHg 95%
05:00 +12°C° 0 mm 3 mps 753 mmHg 88%
06:00 +13°C° 0 mm 3 mps 753 mmHg 81%
07:00 +14°C° 0 mm 4 mps 753 mmHg 73%
08:00 +17°C° 0 mm 4 mps 754 mmHg 67%
09:00 +18°C° 0 mm 4 mps 754 mmHg 60%
10:00 +19°C° 0 mm 4 mps 754 mmHg 53%
11:00 +20°C° 0 mm 4 mps 753 mmHg 50%
12:00 +21°C° 0 mm 3 mps 753 mmHg 46%
13:00 +22°C° 0 mm 3 mps 753 mmHg 43%
14:00 +22°C° 0 mm 3 mps 753 mmHg 43%
15:00 +22°C° 0 mm 3 mps 753 mmHg 42%
16:00 +22°C° 0 mm 3 mps 752 mmHg 42%
17:00 +21°C° 0 mm 2 mps 752 mmHg 48%
18:00 +20°C° 0 mm 2 mps 752 mmHg 54%
19:00 +20°C° 0 mm 1 mps 752 mmHg 60%
20:00 +19°C° 0 mm 1 mps 752 mmHg 64%
21:00 +16°C° 0 mm 1 mps 752 mmHg 67%
22:00 +14°C° 0 mm 1 mps 752 mmHg 70%
23:00 +14°C° 0 mm 1 mps 751 mmHg 73%

10 July, Friday

Time Temperature Precipitation Wind Pressure Humidity
00:00 +14°C° 0 mm 1 mps 751 mmHg 75%
01:00 +13°C° 0 mm 1 mps 751 mmHg 77%
02:00 +13°C° 0 mm 2 mps 751 mmHg 80%
03:00 +13°C° 0 mm 2 mps 750 mmHg 82%
04:00 +13°C° 0 mm 2 mps 750 mmHg 84%
05:00 +15°C° 0 mm 2 mps 750 mmHg 78%
06:00 +17°C° 0 mm 2 mps 749 mmHg 72%
07:00 +18°C° 0 mm 2 mps 749 mmHg 66%
08:00 +20°C° 0 mm 2 mps 749 mmHg 61%
09:00 +23°C° 0 mm 2 mps 749 mmHg 55%
10:00 +25°C° 0 mm 2 mps 748 mmHg 49%
11:00 +26°C° 0 mm 3 mps 748 mmHg 48%
12:00 +27°C° 0 mm 3 mps 748 mmHg 48%
13:00 +27°C° 0 mm 3 mps 747 mmHg 47%
14:00 +27°C° 0 mm 3 mps 747 mmHg 47%
15:00 +27°C° 0 mm 4 mps 747 mmHg 48%
16:00 +27°C° 0 mm 4 mps 747 mmHg 48%
17:00 +26°C° 0 mm 4 mps 747 mmHg 54%
18:00 +23°C° 0 mm 4 mps 747 mmHg 61%
19:00 +21°C° 0 mm 4 mps 747 mmHg 67%
20:00 +20°C° 0.4 mm 4 mps 748 mmHg 75%
21:00 +18°C° 0.4 mm 3 mps 748 mmHg 83%
22:00 +17°C° 0.4 mm 3 mps 749 mmHg 90%
23:00 +16°C° 0.3 mm 3 mps 749 mmHg 91%
Show more